Wind_Speed
13 14 14 14 14 14 15 15 15 15 15 15 15 15 16 16 16 17 17 17 17 17 17 17 17 17 17 17 18 18 18 18 19 19 19 19 20 20 21 21 21 21 21
13 13 13 14 14 14 14 15 15 15 15 15 15 16 16 16 17 17 17 18 18 17 17 17 17 17 17 17 17 17 18 18 18 18 19 19 20 20 21 21 21 22 22
13 13 13 13 13 13 14 14 14 15 15 15 16 16 16 17 17 18 18 18 18 17 17 17 16 17 17 17 17 17 18 18 18 18 19 19 19 20 20 21 21 22 22
12 13 13 13 13 13 13 13 14 15 15 16 16 16 17 17 18 18 18 18 17 17 17 17 16 16 16 16 16 17 17 17 18 18 18 19 19 20 21 21 22 22 23
12 12 12 13 13 14 14 14 15 15 16 16 16 16 17 17 18 18 18 18 17 17 17 16 16 16 15 15 16 16 16 16 17 18 18 19 19 19 20 21 21 22 23
12 13 13 13 14 15 15 15 16 16 16 17 17 17 17 17 17 17 17 17 17 17 16 16 16 16 16 16 16 16 16 17 17 18 18 19 19 20 21 21 22 23 23
13 14 14 15 15 15 16 16 17 17 17 17 18 18 18 17 18 17 17 17 17 17 17 17 16 16 16 16 17 17 17 18 18 18 19 19 20 21 21 22 23 24 25
15 15 16 16 17 17 17 18 18 18 18 18 19 19 19 18 18 18 18 18 18 18 18 18 17 18 18 18 18 18 18 18 18 19 19 20 20 21 22 23 23 24 25
16 17 18 18 19 19 19 19 19 19 20 20 20 20 20 20 20 20 20 19 19 19 19 19 19 19 19 19 19 19 19 19 20 20 21 21 21 22 22 23 24 24 25
18 19 20 20 21 21 21 21 21 21 21 22 22 22 22 22 22 22 22 21 21 21 21 21 21 21 21 21 21 21 21 22 22 22 23 23 23 24 24 25 25 26 26
19 19 21 22 22 22 22 23 23 23 23 24 24 24 24 24 24 24 24 24 23 23 23 23 23 23 23 23 24 24 24 24 24 25 25 25 26 26 27 27 27 28 28
18 19 21 22 23 23 24 24 24 25 25 25 25 26 26 26 26 26 26 26 26 26 26 26 26 26 26 26 27 27 27 28 28 28 28 29 29 29 30 30 30 31 31
19 20 21 22 23 24 24 25 25 26 26 26 27 27 27 28 28 28 28 29 29 29 29 29 30 30 30 30 31 31 31 32 32 32 32 32 33 33 33 34 34 34 34
20 20 21 22 23 24 25 26 26 27 27 28 28 28 29 29 30 30 31 31 32 32 33 33 33 33 34 35 35 36 36 36 36 37 37 37 37 37 37 38 38 38 38
21 21 21 22 23 24 25 26 27 27 28 29 29 30 30 31 32 32 33 34 35 35 36 36 37 37 38 39 39 40 41 41 41 41 41 41 41 41 41 42 42 42 42
21 21 22 22 23 24 25 26 27 27 28 29 30 30 31 32 33 34 35 35 37 38 39 39 40 41 41 42 43 44 45 45 46 46 46 46 46 45 46 46 46 46 46
21 21 22 22 22 23 24 25 26 27 28 29 30 31 32 33 34 35 35 36 38 39 39 40 41 42 43 45 46 47 48 48 49 49 49 49 49 50 50 50 50 50 50
20 21 21 22 23 23 24 25 26 28 28 29 30 31 33 34 34 35 36 37 38 39 40 41 42 43 44 46 47 48 49 50 51 51 52 52 52 53 53 53 54 54 54
21 21 22 23 24 25 26 27 28 29 30 31 32 33 34 34 35 36 36 38 39 40 41 42 43 44 45 47 48 49 50 51 52 53 53 54 54 55 55 56 57 57 57
22 23 23 24 25 26 27 28 29 30 31 31 32 33 34 34 35 36 36 38 39 40 41 43 44 45 46 48 49 50 51 52 53 53 54 55 56 56 57 58 59 59 60
23 24 25 26 27 28 29 29 30 30 31 32 33 33 34 35 36 37 37 39 40 41 42 44 45 46 47 49 50 51 52 52 53 54 55 57 58 59 60 61 62 62 62
25 26 26 27 28 29 29 30 30 31 32 33 33 34 35 35 36 37 38 40 41 42 43 45 46 48 48 50 52 53 53 53 54 55 57 59 60 62 63 64 65 65 66
27 27 28 29 29 30 30 30 30 31 31 32 32 33 34 35 36 37 39 40 42 43 44 46 48 49 50 52 54 56 58 58 58 58 59 61 63 65 66 67 68 69 69
28 29 29 30 30 30 29 29 29 29 30 31 32 33 34 36 37 39 40 42 43 45 47 49 51 53 55 56 58 60 63 65 66 65 64 65 66 67 69 71 72 73 73
29 30 30 30 30 30 29 29 29 30 31 32 33 34 36 38 39 41 43 45 47 49 51 53 56 58 60 62 64 66 68 70 72 74 73 72 72 72 73 74 75 76 77
30 31 31 31 30 30 30 30 31 32 33 34 35 37 39 41 43 45 47 49 52 54 56 59 61 63 66 68 70 72 74 76 77 80 81 80 80 80 80 80 79 80 80
Wind_Direction
248 252 255 258 260 262 263 263 264 264 264 264 264 265 265 264 264 265 265 265 264 262 261 260 259 259 259 259 259 259 259 259 259 259 259 259 259 259 259 259 259 259 259
251 252 254 257 259 260 260 262 262 263 263 264 265 265 265 264 264 265 266 265 264 263 262 261 260 259 259 259 259 259 259 260 260 260 260 260 260 261 260 260 260 260 261
251 252 253 255 256 258 258 259 261 262 263 265 265 265 265 266 266 266 267 266 265 264 262 261 260 260 260 260 260 260 261 261 261 261 262 262 262 263 263 263 263 263 263
252 253 253 254 256 257 259 260 262 264 266 267 267 266 266 267 268 268 268 267 266 264 263 262 261 261 261 260 261 262 262 263 264 264 264 264 265 265 265 265 265 265 265
255 255 255 256 257 259 260 262 265 267 268 268 268 268 268 269 270 270 269 268 266 265 265 263 262 261 261 261 262 263 264 265 266 267 267 268 268 268 267 267 267 267 268
258 258 258 259 261 262 263 265 267 268 269 269 270 270 269 269 270 270 269 267 266 265 264 263 263 263 263 263 263 264 266 267 267 268 268 269 270 270 270 270 270 270 270
261 262 263 263 264 265 266 268 268 268 268 269 270 270 270 269 269 269 268 267 266 265 263 263 264 264 265 266 267 267 268 269 269 270 271 271 272 273 273 273 273 273 273
263 265 265 265 266 266 267 268 268 268 268 268 269 269 270 269 269 268 267 265 265 263 263 263 264 265 266 267 268 269 270 271 272 273 274 274 275 275 275 275 275 275 275
265 265 266 266 266 267 267 268 268 268 268 268 269 269 270 269 268 267 265 264 264 264 263 264 265 266 267 267 267 269 270 272 273 274 275 276 276 277 277 277 277 277 276
265 265 266 267 267 268 268 269 269 269 268 268 269 269 269 268 267 266 264 263 264 264 264 265 265 266 266 267 268 269 271 273 274 275 275 276 276 277 277 278 278 278 278
268 266 265 266 267 269 270 270 271 270 269 269 269 269 268 268 266 265 264 264 264 265 265 265 266 266 266 267 268 269 271 272 273 275 276 276 277 277 278 278 278 278 278
274 271 269 269 269 269 270 270 270 270 270 269 269 269 269 268 267 266 266 265 265 266 266 266 267 267 267 268 269 270 271 272 273 274 275 276 276 277 278 278 278 278 278
278 277 275 273 272 271 271 271 271 270 270 270 270 270 270 269 268 267 267 267 267 267 267 268 268 269 269 270 270 271 271 272 273 274 275 275 276 277 277 278 278 278 277
280 278 277 276 276 275 274 274 273 272 272 272 272 271 271 270 270 269 269 268 268 268 269 269 270 270 270 271 271 272 272 273 273 274 274 275 276 276 277 277 277 277 277
282 280 279 278 277 277 276 275 275 275 274 274 273 272 272 272 272 271 271 271 270 270 270 270 271 271 271 271 272 272 273 273 273 274 274 275 275 276 276 277 276 276 276
284 283 282 280 279 279 278 278 278 277 277 276 275 275 275 274 273 273 273 273 272 272 272 272 272 272 272 272 273 273 273 274 274 275 275 275 275 275 275 275 275 275 275
286 286 285 285 284 284 283 282 282 281 280 279 278 278 277 276 276 276 275 275 274 274 275 274 274 274 274 274 274 274 274 274 274 274 274 274 274 274 274 274 274 274 274
288 289 289 289 288 287 286 285 284 283 282 282 281 280 280 279 279 278 277 277 277 276 276 276 275 275 274 274 274 274 274 274 274 274 274 274 274 273 273 273 273 273 273
290 291 291 291 291 290 290 289 288 286 285 284 284 283 282 282 281 280 280 279 279 279 279 278 277 277 276 276 275 274 274 274 274 274 274 274 273 273 272 272 272 272 272
292 292 292 292 292 292 292 291 290 289 288 287 286 286 285 284 283 283 282 282 281 281 281 280 279 279 278 277 276 276 275 275 275 275 275 274 273 273 272 272 271 271 271
294 294 294 294 294 294 293 292 290 289 289 288 287 287 287 286 285 285 284 284 284 284 284 283 282 281 280 279 279 278 277 277 276 276 275 274 274 273 273 272 272 271 271
294 295 295 295 295 294 293 292 291 290 289 288 288 287 287 287 287 287 287 287 287 287 286 286 285 284 283 282 282 281 280 278 277 277 276 276 275 275 274 273 272 272 271
294 296 296 296 295 295 294 293 292 291 291 291 290 290 290 290 290 290 290 290 290 289 289 288 287 287 286 285 285 284 283 282 279 278 276 276 276 275 275 274 273 272 271
295 296 296 296 295 295 293 292 292 292 292 292 292 292 292 292 292 292 292 292 292 292 291 290 290 289 288 288 287 286 286 285 284 282 279 277 275 275 274 274 273 272 271
295 295 294 294 294 293 291 291 291 291 292 292 292 293 293 293 293 293 294 293 293 293 292 291 291 290 290 289 288 287 286 286 285 284 282 280 278 276 274 273 272 271 271
294 294 293 292 291 290 289 290 290 291 291 292 292 293 293 294 294 294 294 294 294 293 293 292 292 291 290 290 289 288 287 286 285 284 283 282 280 278 276 275 273 271 269
Height
5883 5883 5883 5883 5883 5883 5883 5883 5883 5883 5883 5883 5883 5883 5882 5882 5881 5881 5880 5880 5880 5879 5879 5878 5878 5878 5877 5877 5877 5876 5876 5876 5876 5876 5876 5876 5876 5876 5876 5876 5876 5876 5877
5881 5881 5881 5881 5881 5881 5881 5881 5881 5881 5881 5881 5881 5880 5880 5880 5879 5879 5878 5878 5877 5877 5876 5876 5875 5875 5875 5874 5874 5874 5874 5874 5873 5873 5873 5873 5873 5873 5873 5873 5873 5873 5873
5879 5879 5879 5879 5879 5879 5879 5879 5879 5879 5879 5879 5878 5878 5878 5877 5877 5876 5876 5875 5875 5874 5874 5873 5873 5872 5872 5871 5871 5871 5871 5871 5871 5871 5871 5870 5870 5870 5870 5870 5870 5870 5870
5877 5877 5877 5878 5878 5878 5878 5877 5877 5877 5877 5877 5876 5876 5875 5875 5874 5874 5873 5872 5872 5872 5871 5871 5870 5870 5869 5869 5869 5868 5868 5868 5868 5868 5868 5868 5867 5867 5867 5867 5867 5867 5867
5876 5876 5876 5876 5876 5876 5876 5875 5875 5875 5874 5874 5874 5873 5873 5872 5871 5871 5870 5870 5869 5869 5868 5868 5868 5867 5867 5866 5866 5866 5866 5865 5865 5865 5865 5864 5864 5864 5864 5864 5864 5863 5863
5874 5874 5874 5874 5874 5873 5873 5873 5873 5872 5872 5871 5871 5870 5870 5869 5869 5868 5867 5867 5866 5866 5865 5865 5865 5864 5864 5864 5863 5863 5863 5863 5862 5862 5862 5861 5861 5861 5861 5860 5860 5860 5859
5873 5872 5872 5872 5871 5871 5870 5870 5870 5869 5869 5868 5868 5867 5867 5866 5866 5865 5864 5864 5863 5863 5863 5862 5862 5861 5861 5861 5860 5860 5860 5859 5859 5859 5858 5858 5858 5857 5857 5857 5856 5856 5855
5871 5870 5870 5869 5869 5868 5868 5867 5866 5866 5865 5865 5864 5864 5863 5863 5862 5862 5861 5861 5860 5860 5859 5859 5859 5858 5858 5857 5857 5857 5856 5856 5855 5855 5855 5854 5854 5853 5853 5853 5852 5852 5851
5868 5867 5867 5866 5865 5865 5864 5864 5863 5862 5862 5861 5861 5860 5860 5859 5859 5858 5858 5857 5857 5856 5856 5855 5855 5855 5854 5854 5853 5853 5853 5852 5852 5851 5851 5850 5850 5849 5849 5848 5848 5847 5847
5865 5865 5864 5863 5862 5861 5861 5860 5859 5859 5858 5858 5857 5857 5856 5855 5855 5854 5854 5854 5853 5853 5852 5851 5851 5851 5850 5850 5849 5849 5849 5848 5848 5847 5846 5846 5845 5845 5844 5844 5843 5842 5842
5862 5861 5860 5859 5859 5858 5857 5856 5855 5855 5854 5853 5853 5852 5852 5851 5850 5850 5850 5849 5849 5848 5848 5847 5847 5846 5846 5845 5845 5845 5844 5844 5843 5842 5842 5841 5841 5840 5839 5839 5838 5837 5836
5859 5858 5857 5856 5855 5854 5853 5852 5851 5850 5849 5849 5848 5847 5847 5846 5846 5845 5845 5844 5844 5843 5843 5842 5842 5841 5841 5840 5840 5839 5839 5838 5838 5837 5837 5836 5835 5834 5834 5833 5832 5831 5831
5855 5854 5853 5852 5850 5849 5848 5847 5846 5845 5845 5844 5843 5842 5842 5841 5840 5840 5839 5839 5838 5838 5837 5836 5836 5835 5835 5834 5834 5833 5833 5832 5831 5831 5830 5830 5829 5828 5827 5826 5825 5825 5824
5851 5850 5849 5847 5846 5845 5844 5843 5841 5840 5839 5838 5838 5837 5836 5835 5835 5834 5833 5833 5832 5831 5831 5830 5829 5829 5828 5827 5826 5826 5825 5824 5824 5823 5823 5822 5821 5820 5819 5818 5817 5817 5816
5846 5845 5844 5843 5842 5840 5839 5838 5836 5835 5834 5833 5832 5831 5830 5829 5828 5827 5827 5826 5825 5824 5823 5823 5822 5821 5820 5819 5818 5817 5816 5816 5815 5814 5814 5813 5812 5811 5810 5809 5808 5807 5806
5842 5840 5839 5838 5837 5835 5834 5833 5831 5830 5829 5827 5826 5825 5824 5823 5822 5821 5820 5819 5817 5816 5816 5815 5814 5813 5812 5810 5809 5808 5807 5806 5805 5804 5803 5803 5802 5801 5800 5798 5797 5796 5795
5837 5835 5834 5833 5832 5830 5829 5827 5826 5824 5823 5821 5820 5818 5817 5816 5814 5813 5812 5811 5809 5808 5807 5806 5805 5803 5802 5801 5799 5797 5796 5795 5794 5793 5792 5791 5790 5789 5788 5787 5785 5784 5783
5832 5831 5829 5828 5827 5825 5824 5822 5820 5818 5817 5815 5813 5812 5810 5808 5807 5806 5804 5802 5800 5799 5798 5796 5795 5793 5792 5790 5788 5786 5785 5784 5782 5781 5780 5779 5778 5776 5775 5774 5772 5771 5770
5827 5826 5824 5823 5821 5820 5818 5816 5814 5812 5810 5808 5807 5805 5803 5801 5799 5797 5796 5794 5792 5790 5788 5786 5784 5782 5781 5779 5776 5775 5773 5771 5770 5768 5767 5765 5764 5762 5761 5759 5758 5757 5756
5822 5821 5819 5817 5815 5814 5812 5810 5808 5805 5803 5801 5799 5797 5795 5793 5791 5789 5787 5785 5782 5781 5778 5776 5773 5771 5769 5766 5764 5763 5761 5759 5757 5755 5754 5751 5749 5748 5746 5744 5743 5742 5741
5817 5815 5814 5812 5810 5807 5805 5803 5801 5798 5796 5794 5792 5789 5787 5785 5783 5781 5778 5776 5773 5771 5768 5765 5762 5760 5757 5754 5751 5750 5748 5746 5744 5742 5739 5737 5735 5733 5731 5729 5727 5726 5725
5812 5810 5808 5806 5803 5801 5798 5796 5794 5791 5789 5786 5784 5781 5779 5777 5774 5772 5769 5766 5763 5761 5758 5754 5751 5748 5745 5741 5738 5735 5734 5734 5731 5729 5725 5722 5720 5717 5715 5713 5711 5709 5708
5806 5804 5802 5799 5797 5794 5792 5789 5786 5784 5781 5779 5776 5773 5771 5768 5765 5763 5759 5756 5753 5750 5747 5743 5739 5736 5733 5729 5725 5721 5717 5716 5715 5714 5712 5708 5704 5700 5698 5695 5693 5691 5689
5800 5797 5795 5792 5790 5787 5785 5782 5779 5777 5774 5771 5769 5766 5763 5760 5757 5753 5750 5747 5743 5739 5736 5731 5727 5723 5719 5715 5710 5706 5702 5697 5694 5694 5694 5691 5688 5683 5680 5676 5673 5671 5669
5793 5791 5788 5786 5783 5780 5778 5775 5772 5770 5767 5764 5761 5758 5754 5751 5747 5744 5740 5736 5732 5728 5724 5719 5714 5709 5704 5700 5694 5690 5685 5680 5674 5670 5671 5670 5666 5664 5661 5657 5653 5651 5648
5786 5784 5781 5779 5776 5773 5770 5768 5765 5762 5759 5756 5753 5749 5745 5741 5737 5733 5729 5724 5720 5715 5710 5705 5700 5694 5688 5683 5677 5671 5665 5660 5655 5648 5646 5645 5642 5640 5636 5634 5632 5629 5625